Regional Weather Roundup
Issued by NWS

Home | Current Version | Previous Version | Graphics & Text | Print | Product List | Glossary On
Versions: 1 2 3 4 5 6 7 8 9 10 11 12 13 14 15 16 17 18 19 20 21 22 23 24 25 26 27 28 29 30 31 32 33 34 35 36 37 38 39 40 41 42 43 44 45 46 47 48 49 50
000
ASUS43 KMPX 261910
RWRMN
WEATHER ROUNDUP FOR MINNESOTA
NATIONAL WEATHER SERVICE TWIN CITIES/CHANHASSEN MN
200 PM CDT SUN MAR 26 2017


NOTE: "FAIR" INDICATES FEW OR NO CLOUDS BELOW 12,000 FEET WITH NO
SIGNIFICANT WEATHER AND/OR OBSTRUCTIONS TO VISIBILITY. N/A MEANS
CURRENT SKY AND/OR WEATHER CONDITIONS ARE NOT AVAILABLE.

MNZ060>063-068>070-262000-
   Twin Cities Metro

CITY           SKY/WX    TMP DP  RH WIND       PRES   REMARKS
TWIN CITIES    CLOUDY    42  35  76 NE6       29.91S
ST PAUL        CLOUDY    41  38  89 N6        29.92S
CRYSTAL        CLOUDY    42  34  73 N7        29.90S
BLAINE         CLOUDY    43  39  87 N7        29.90F
LAKEVILLE      CLOUDY    39  39 100 N5        29.90S
EDEN PRAIRIE   CLOUDY    42  36  79 N7        29.90S
SOUTH ST PAUL  CLOUDY    41  37  88 N3        29.90F
LAKE ELMO      CLOUDY    39  37  93 NE3       29.91S
$$
MNZ001>005-007-008-013>017-022>024-027-028-262000-
   Northwest Minnesota

CITY           SKY/WX    TMP DP  RH WIND       PRES   REMARKS
BEMIDJI        MOSUNNY   42  32  68 NE3       29.93F
HALLOCK        CLOUDY    37  36  93 S3        29.96S
ROSEAU         CLOUDY    41  36  81 W5        29.96S
WARROAD        CLOUDY    41  36  81 W7        29.96R
THIEF RVR FALL CLOUDY   N/A N/A N/A SW9       29.97R
CROOKSTON      CLOUDY    41  37  87 SW5       29.97S
FOSSTON        PTSUNNY   48  36  61 W6        29.95S
DETROIT LAKES  CLOUDY    43  32  65 CALM      29.95R
MOORHEAD       CLOUDY    43  36  75 CALM      29.97R
PARK RAPIDS    MOSUNNY   43  31  62 CALM      29.92F
MAHNOMEN       FAIR      44  34  69 CALM      29.94S
$$
MNZ006-009>011-018-025>026-262000-
   North Central Minnesota

CITY           SKY/WX    TMP DP  RH WIND       PRES   REMARKS
BAUDETTE       CLOUDY    45  34  65 VRB5      29.94F
FLAG ISLAND    CLOUDY    34  30  86 S7        29.95S WCI  28
INTL FALLS     PTSUNNY   42  32  67 W7        29.95S
WASKISH        PTSUNNY   43  36  75 NW7       29.96S
BIG FORK       MOSUNNY   46  34  61 CALM      29.94F
LONGVILLE      CLOUDY    43  34  70 NE3       29.94S
GRAND RAPIDS   CLOUDY    40  32  73 N6        29.95F
CRANE LAKE     CLOUDY    43  30  61 CALM      29.96F
ORR            CLOUDY    45  28  53 CALM      29.91F
COOK           CLOUDY    39  30  70 CALM      29.94F
WALKER         CLOUDY    40  32  71 SE6       29.94F
$$
MNZ012-019>021-037-262000-
   Northeast Minnesota

CITY           SKY/WX    TMP DP  RH WIND       PRES   REMARKS
DULUTH         CLOUDY    36  34  92 N5        29.92F
ELY            CLOUDY    36  30  80 CALM      29.94F
HIBBING        CLOUDY    37  32  82 N6        29.93F
EVELETH        CLOUDY    38  32  76 N7        29.95S
DULUTH HARBOR  DRIZZLE   36  34  93 NE10      29.97S
TWO HARBORS    LGT RAIN  39  34  81 NE3       29.92F
SILVER BAY     CLOUDY    36  34  93 CALM      29.92F
GRAND MARAIS     N/A     34  32  92 E8        29.96F WCI  27
G MARAIS ARPRT LGT RAIN  32  27  80 N6        29.92F WCI  26
$$
MNZ029>031-032-039>041-046>048-054>057-064-262000-
   West Central Minnesota

CITY           SKY/WX    TMP DP  RH WIND       PRES   REMARKS
FERGUS FALLS   CLOUDY    45  36  70 CALM      29.97S
WHEATON        PTSUNNY   45  36  70 CALM      29.96F
MORRIS         CLOUDY    45  36  70 N5        29.93S
ALEXANDRIA     CLOUDY    44  34  67 N8        29.93S
ELBOW LAKE     CLOUDY    44  35  72 CALM      29.94F
WADENA         CLOUDY    45  34  65 CALM      29.93S
GLENWOOD       CLOUDY    45  36  70 N6        29.93S
APPLETON       CLOUDY    45  37  76 CALM      29.94S
BENSON         CLOUDY    46  32  57 E7        29.95F
ORTONVILLE     CLOUDY    43  37  81 W3        29.94F
MADISON        CLOUDY    45  43  93 N6        29.94F
WILLMAR        CLOUDY    43  37  81 N7        29.94F
$$
MNZ033>034-036-042>043-049>051-058-059-262000-
   Central Minnesota

CITY           SKY/WX    TMP DP  RH WIND       PRES   REMARKS
ST CLOUD       CLOUDY    40  36  86 N7        29.92S
SAUK CENTRE    CLOUDY    42  35  74 NE8       29.93S
PAYNESVILLE      N/A     39  39 100 NE6       29.93F
AITKIN         CLOUDY    41  32  70 N6        29.92F
PINE RIVER     CLOUDY    43  34  70 N8        29.97S
BRAINERD       CLOUDY    39  34  82 N7        29.94S
STAPLES        CLOUDY    43  32  65 NE3       29.93F
LONG PRAIRIE   CLOUDY    43  34  70 NW8       29.93S
LITTLE FALLS   CLOUDY    37  34  87 NE5       29.94S
LITCHFIELD     CLOUDY    43  37  81 N7        29.92F
BUFFALO        CLOUDY    40  35  81 N6        29.93S
MAPLE LAKE     CLOUDY    40  38  91 N6        29.93S
HUTCHINSON     CLOUDY    41  37  87 N6        29.92F
$$
MNZ037-044-045-052-053-262000-
   East Central Minnesota

CITY           SKY/WX    TMP DP  RH WIND       PRES   REMARKS
PRINCETON      CLOUDY    41  37  87 N6        29.92F
MORA           CLOUDY    37  32  81 N3        29.94S
CAMBRIDGE      CLOUDY    43  37  81 N5        29.90F
RUSH CITY      CLOUDY    39  36  88 N8        29.92S
MOOSE LAKE     CLOUDY    36  32  87 NE8       29.92S
CLOQUET        CLOUDY    36  34  93 N3        29.93S
MCGREGOR       CLOUDY    36  34  93 N6        29.94F
$$
MNZ071>073-080-081-089-090-097-098-262000-
   Southwest Minnesota

CITY           SKY/WX    TMP DP  RH WIND       PRES   REMARKS
MONTEVIDEO     CLOUDY    45  37  76 NE7       29.95F
GRANITE FALLS  CLOUDY    44  38  80 N8        29.94F
CANBY          CLOUDY    41  39  91 CALM      29.95S
MARSHALL       CLOUDY    41  37  86 N9        29.94S
REDWOOD FALLS  CLOUDY    43  35  73 NE5       29.92S
OLIVIA         CLOUDY    41  36  81 N7        29.92S
PIPESTONE      CLOUDY    41  34  75 NE6       29.92S
WINDOM         CLOUDY    41  37  87 N10       29.90F
WORTHINGTON    CLOUDY    41  37  86 NE9       29.91S
JACKSON        CLOUDY    41  37  87 N6        29.90S
TRACY          CLOUDY    42  38  85 N9        29.92S
SLAYTON        CLOUDY    39  37  91 N9        29.92S
$$
MNZ065>067-074>077-082>085-091>093-262000-
   South Central Minnesota

CITY           SKY/WX    TMP DP  RH WIND       PRES   REMARKS
MANKATO        CLOUDY    40  37  89 N9        29.90F
NEW ULM        CLOUDY    39  36  87 N5        29.90F
ST JAMES       CLOUDY    39  37  93 CALM      29.92S
FAIRMONT       CLOUDY    41  38  89 N9        29.90S
GLENCOE        CLOUDY    41  39  90 N3        29.91S
FARIBAULT      CLOUDY    39  39 100 N7        29.90S FOG
OWATONNA       CLOUDY    39  37  93 N5        29.89S
WASECA         CLOUDY    39  36  87 N8        29.90F
ALBERT LEA     CLOUDY    39  39 100 N7        29.87F
$$
MNZ078>079-086>088-094>096-262000-
   Southeast Minnesota

CITY           SKY/WX    TMP DP  RH WIND       PRES   REMARKS
ROCHESTER      CLOUDY    39  39 100 N8        29.86F
RED WING       CLOUDY    43  37  81 CALM      29.89S
STANTON        CLOUDY    41  38  87 NE7       29.89S
DODGE CENTER   CLOUDY    37  37 100 N7        29.87S FOG
WINONA         CLOUDY    41  37  87 CALM      29.88F
AUSTIN         CLOUDY    41  37  87 NW7       29.87S
PRESTON        CLOUDY    39  37  92 N9        29.86S
$$
ABBREVIATIONS USED IN REMARKS
   TC - TEMPERATURES IN CELSIUS
  WCI - WIND CHILL INDEX
   HX - HEAT INDEX
  VSB - VISIBILITY
$$




USA.gov is the U.S. government's official web portal to all federal, state and local government web resources and services.